Location: Glens Falls
(43.3090°N, 73.6440°W)
Time: 16:41:40
(UTC-04:00)

Cosmos 1603 - Pass Details

Date: 24 February 2018
Orbit: 831 x 859 km, 71.0° (Epoch: 24 June)

Event Time Altitude Azimuth Distance (km) Brightness Sun altitude
Rises 18:28:01 0° 339° (NNW) 3,407 7.1 -10.0°
Reaches altitude 10° 18:30:34 10° 345° (NNW) 2,464 6.3 -10.4°
Maximum altitude 18:36:02 49° 60° (ENE) 1,077 3.9 -11.4°
Drops below altitude 10° 18:41:26 10° 134° (SE) 2,436 5.7 -12.4°
Enters shadow 18:43:01 - 138° (SE) 3,021 6.2 -12.7°
